Showing default

ESCAPADE BLUE, 66451

Orbit data source: Space-Track

ESCAPADE BLUE, 66451 is an American payload satellite in HEO that was launched on Thu, 13 Nov 2025 UTC via an NEW GLENN 7X2 launch vehicle from the Air Force Eastern Test Range (AFETR). Payload-class satellites include a variety of spacecraft equipped with specific instruments for various scientific and technological missions. These include communications satellites like Starlink; space stations such as the ISS; scientific satellites like the Hubble; Earth observation satellites from companies like Planet Labs, Umbra, and HawkEye 360; GPS; miniature CubeSats for education and research; and military/defense satellites.

Not visible in the next 10 days
Identifier
66451, 2025-260A
Orbit
HEO
Country
Flag of USUS
Related business
Manufacturer
Rocket Lab
Mission
Operational Civil Planetary
Bus & Motor
RL PIONEER, AE?
Mass
535 kg wet, 201 kg dry
Launch date (UTC)
2025-11-13 (7 months ago)
Launch vehicle
NEW GLENN 7X2
Launch site
Air Force Eastern Test Range (AFETR)
Object type
Payload
Rocket body
Debris
Shape & HBR
Box + 2 Pan + 1 Rod, 1.1 m
Radar Cross Section
0.919 m²

Expand to show TLE details & history
Last TLE update: 7 months ago

TLE from 7 months ago
0 ESCAPADE BLUE
1 66451U 25260A   25317.89009259  .00000000  00000-0  00000+0 0  9996
2 66451  29.5791 179.7445 9967950 180.3280   0.0007  0.00296241    13
Epoch: 2025-11-13T21:21Z
TLE epoch observation values (Epoch: 2025-11-13T21:21:43.999Z)
Latitude
0.05305°
Longitude
171.93127°
Altitude
4,073,792.102 km
Speed
0.027 km/s
True Right ascension
12h 22m 25s
True Declination
0° 03' 11"
Sunlit
Object was in daylight at epoch
Visualization orbit readout
Latitude
Unknown
Longitude
Unknown
Altitude
Unknown
Speed
Unknown
Apparent Right ascension
Unknown
Apparent Declination
Unknown
Sunlit
N/A
Visualization observer readout
Local Sidereal Time
07:14:48
Azimuth
Unknown
Elevation
Unknown
Doppler factor
Unknown
Orbital elements
Apogee altitude
4,082,879.409 km
Perigee altitude
185.416 km
Semi-major axis
2,047,910.55 km
Eccentricity
0.9968
Inclination
29.5791°
RAAN
179.7445°
Arg. of periapsis
180.328°
True anomaly
1.8483°
Mean anomaly
0.0007°
Eccentric anomaly
0.07406°
Mean motion
0.00074 °/min
Orbital period
486,100.21 mins
BSTAR
0
Loading maneuver chart data...
Computing Atmospheric mass density...
Loading historical data...
Loading historical data...
Loading historical data...
Loading historical data...
Loading historical data...
Loading historical data...
Loading historical data...
Other satellites on launch #260 in the year 2025 (2025-11-13 UTC)

Documentation

Showing up to 5 results
|